Time,TemperatureF,DewpointF,PressureIn,WindDirection,WindDirectionDegrees,WindSpeedMPH,WindSpeedGustMPH,Humidity,HourlyPrecipIn,Conditions,Clouds,dailyrainin,SoftwareType,DateUTC
2013-04-27 00:02:00,56.0,45.0,30.26,SSE,165,1.0,4.0,66,0.00,,,0.00,,2013-04-27 05:02:00,
2013-04-27 00:12:00,56.0,45.0,30.26,SSE,165,1.0,4.0,66,0.00,,,0.00,,2013-04-27 05:12:00,
2013-04-27 00:22:00,56.0,45.0,30.25,SSE,168,1.0,4.0,66,0.00,,,0.00,,2013-04-27 05:22:00,
2013-04-27 00:32:00,56.0,45.0,30.24,SSE,150,0.0,4.0,66,0.00,,,0.00,,2013-04-27 05:32:00,
2013-04-27 00:42:00,56.0,45.0,30.24,SSE,150,0.0,4.0,66,0.00,,,0.00,,2013-04-27 05:42:00,
2013-04-27 00:52:00,56.0,45.0,30.24,SSW,204,0.0,3.0,66,0.00,,,0.00,,2013-04-27 05:52:00,
2013-04-27 01:01:00,55.0,44.0,30.24,SSW,208,0.0,3.0,67,0.00,,,0.00,,2013-04-27 06:01:00,
2013-04-27 01:12:00,55.0,44.0,30.24,SSW,208,0.0,3.0,67,0.00,,,0.00,,2013-04-27 06:12:00,
2013-04-27 01:22:00,54.0,44.0,30.24,East,98,0.0,6.0,69,0.00,,,0.00,,2013-04-27 06:22:00,
2013-04-27 01:32:00,54.0,46.0,30.23,South,169,1.0,4.0,73,0.00,,,0.00,,2013-04-27 06:32:00,
2013-04-27 01:41:00,54.0,46.0,30.23,South,169,1.0,4.0,73,0.00,,,0.00,,2013-04-27 06:41:00,
2013-04-27 01:52:00,54.0,45.0,30.23,SW,215,1.0,4.0,71,0.00,,,0.00,,2013-04-27 06:52:00,
2013-04-27 02:01:00,53.0,44.0,30.24,SSW,202,0.0,3.0,72,0.00,,,0.00,,2013-04-27 07:01:00,
2013-04-27 02:11:00,53.0,44.0,30.24,SSW,202,0.0,3.0,72,0.00,,,0.00,,2013-04-27 07:11:00,
2013-04-27 02:21:00,53.0,44.0,30.23,SSW,205,0.0,1.0,72,0.00,,,0.00,,2013-04-27 07:21:00,
2013-04-27 02:32:00,52.0,44.0,30.23,SSW,203,0.0,3.0,74,0.00,,,0.00,,2013-04-27 07:32:00,
2013-04-27 02:42:00,52.0,44.0,30.23,SSW,203,0.0,3.0,74,0.00,,,0.00,,2013-04-27 07:42:00,
2013-04-27 02:52:00,51.0,43.0,30.23,SSW,196,0.0,1.0,75,0.00,,,0.00,,2013-04-27 07:52:00,
2013-04-27 03:01:00,50.0,43.0,30.23,SSW,196,0.0,1.0,76,0.00,,,0.00,,2013-04-27 08:01:00,
2013-04-27 03:11:00,50.0,43.0,30.23,SSW,196,0.0,1.0,76,0.00,,,0.00,,2013-04-27 08:11:00,
2013-04-27 03:21:00,50.0,43.0,30.23,South,185,0.0,1.0,78,0.00,,,0.00,,2013-04-27 08:21:00,
2013-04-27 03:33:00,49.0,43.0,30.23,South,185,0.0,1.0,79,0.00,,,0.00,,2013-04-27 08:33:00,
2013-04-27 03:41:00,49.0,43.0,30.23,South,185,0.0,1.0,79,0.00,,,0.00,,2013-04-27 08:41:00,
2013-04-27 03:52:00,49.0,43.0,30.22,South,185,0.0,2.0,79,0.00,,,0.00,,2013-04-27 08:52:00,
2013-04-27 04:01:00,49.0,43.0,30.22,SSW,194,0.0,2.0,80,0.00,,,0.00,,2013-04-27 09:01:00,
2013-04-27 04:11:00,49.0,43.0,30.22,SSW,194,0.0,2.0,80,0.00,,,0.00,,2013-04-27 09:11:00,
2013-04-27 04:21:00,48.0,43.0,30.22,SSW,194,0.0,1.0,84,0.00,,,0.00,,2013-04-27 09:21:00,
2013-04-27 04:33:00,47.0,41.0,30.22,SSW,194,0.0,0.0,81,0.00,,,0.00,,2013-04-27 09:33:00,
2013-04-27 04:42:00,47.0,41.0,30.22,SSW,194,0.0,0.0,81,0.00,,,0.00,,2013-04-27 09:42:00,
2013-04-27 04:53:00,47.0,42.0,30.22,SSW,194,0.0,2.0,82,0.00,,,0.00,,2013-04-27 09:53:00,
2013-04-27 05:02:00,47.0,42.0,30.22,SSW,194,0.0,2.0,82,0.00,,,0.00,,2013-04-27 10:02:00,
2013-04-27 05:12:00,47.0,42.0,30.22,SSW,194,0.0,2.0,82,0.00,,,0.00,,2013-04-27 10:12:00,
2013-04-27 05:22:00,46.0,41.0,30.21,SSW,194,0.0,0.0,82,0.00,,,0.00,,2013-04-27 10:22:00,
2013-04-27 05:32:00,46.0,41.0,30.21,SSW,194,0.0,0.0,83,0.00,,,0.00,,2013-04-27 10:32:00,
2013-04-27 05:42:00,46.0,41.0,30.21,SSW,194,0.0,0.0,83,0.00,,,0.00,,2013-04-27 10:42:00,
2013-04-27 05:52:00,45.0,40.0,30.21,SSW,194,0.0,0.0,83,0.00,,,0.00,,2013-04-27 10:52:00,
2013-04-27 06:02:00,45.0,40.0,30.21,SSW,194,0.0,0.0,84,0.00,,,0.00,,2013-04-27 11:02:00,
2013-04-27 06:11:00,44.0,39.0,30.21,SSW,194,0.0,0.0,84,0.00,,,0.00,,2013-04-27 11:11:00,
2013-04-27 06:22:00,44.0,39.0,30.21,SSW,194,0.0,0.0,84,0.00,,,0.00,,2013-04-27 11:22:00,
2013-04-27 06:31:00,44.0,40.0,30.22,SSW,194,0.0,0.0,85,0.00,,,0.00,,2013-04-27 11:31:00,
2013-04-27 06:41:00,44.0,40.0,30.22,SSW,194,0.0,0.0,85,0.00,,,0.00,,2013-04-27 11:41:00,
2013-04-27 06:52:00,44.0,40.0,30.22,SSW,194,0.0,0.0,85,0.00,,,0.00,,2013-04-27 11:52:00,
2013-04-27 07:01:00,44.0,40.0,30.21,SSW,194,0.0,1.0,86,0.00,,,0.00,,2013-04-27 12:01:00,
2013-04-27 07:11:00,44.0,40.0,30.21,SSW,194,0.0,1.0,86,0.00,,,0.00,,2013-04-27 12:11:00,
2013-04-27 07:22:00,44.0,40.0,30.21,SSW,194,0.0,2.0,86,0.00,,,0.00,,2013-04-27 12:22:00,
2013-04-27 07:32:00,45.0,41.0,30.21,SSW,194,0.0,2.0,87,0.00,,,0.00,,2013-04-27 12:32:00,
2013-04-27 07:42:00,45.0,41.0,30.21,SSW,194,0.0,2.0,87,0.00,,,0.00,,2013-04-27 12:42:00,
2013-04-27 07:52:00,47.0,43.0,30.20,South,171,0.0,2.0,87,0.00,,,0.00,,2013-04-27 12:52:00,
2013-04-27 08:02:00,48.0,44.0,30.20,SSE,159,1.0,4.0,85,0.00,,,0.00,,2013-04-27 13:02:00,
2013-04-27 08:11:00,48.0,44.0,30.20,SSE,159,1.0,4.0,85,0.00,,,0.00,,2013-04-27 13:11:00,
2013-04-27 08:21:00,50.0,45.0,30.20,SE,126,1.0,5.0,83,0.00,,,0.00,,2013-04-27 13:21:00,
2013-04-27 08:32:00,52.0,46.0,30.20,SSW,213,0.0,3.0,81,0.00,,,0.00,,2013-04-27 13:32:00,
2013-04-27 08:42:00,52.0,46.0,30.20,SSW,213,0.0,3.0,81,0.00,,,0.00,,2013-04-27 13:42:00,
2013-04-27 08:52:00,53.0,46.0,30.19,SE,141,1.0,4.0,77,0.00,,,0.00,,2013-04-27 13:52:00,
2013-04-27 09:02:00,54.0,46.0,30.19,South,181,0.0,3.0,73,0.00,,,0.00,,2013-04-27 14:02:00,
2013-04-27 09:11:00,54.0,46.0,30.19,South,181,0.0,3.0,73,0.00,,,0.00,,2013-04-27 14:11:00,
2013-04-27 09:21:00,55.0,45.0,30.18,SSE,157,0.0,5.0,70,0.00,,,0.00,,2013-04-27 14:21:00,
2013-04-27 09:31:00,56.0,46.0,30.18,SSE,157,0.0,3.0,69,0.00,,,0.00,,2013-04-27 14:31:00,
2013-04-27 09:41:00,56.0,46.0,30.18,SSE,157,0.0,3.0,69,0.00,,,0.00,,2013-04-27 14:41:00,
2013-04-27 09:52:00,57.0,45.0,30.18,SSE,156,1.0,5.0,65,0.00,,,0.00,,2013-04-27 14:52:00,
2013-04-27 10:01:00,59.0,46.0,30.18,West,270,0.0,4.0,63,0.00,,,0.00,,2013-04-27 15:01:00,
2013-04-27 10:11:00,59.0,46.0,30.18,West,270,0.0,4.0,63,0.00,,,0.00,,2013-04-27 15:11:00,
2013-04-27 10:22:00,60.0,47.0,30.18,North,5,1.0,5.0,61,0.00,,,0.00,,2013-04-27 15:22:00,
2013-04-27 10:33:00,61.0,46.0,30.18,SE,124,1.0,6.0,57,0.00,,,0.00,,2013-04-27 15:33:00,
2013-04-27 10:42:00,61.0,46.0,30.18,SE,124,1.0,6.0,57,0.00,,,0.00,,2013-04-27 15:42:00,
2013-04-27 10:53:00,62.0,46.0,30.17,ESE,114,2.0,7.0,55,0.00,,,0.00,,2013-04-27 15:53:00,
2013-04-27 11:03:00,63.0,44.0,30.17,East,86,2.0,7.0,50,0.00,,,0.00,,2013-04-27 16:03:00,
2013-04-27 11:13:00,63.0,44.0,30.17,East,86,2.0,7.0,50,0.00,,,0.00,,2013-04-27 16:13:00,
2013-04-27 11:22:00,63.0,44.0,30.17,NW,310,5.0,10.0,49,0.00,,,0.00,,2013-04-27 16:22:00,
2013-04-27 11:32:00,64.0,43.0,30.16,SE,138,5.0,12.0,47,0.00,,,0.00,,2013-04-27 16:32:00,
2013-04-27 11:42:00,64.0,43.0,30.16,SE,138,5.0,12.0,47,0.00,,,0.00,,2013-04-27 16:42:00,
2013-04-27 11:53:00,64.0,45.0,30.16,ESE,116,4.0,10.0,51,0.00,,,0.00,,2013-04-27 16:53:00,
2013-04-27 12:02:00,65.0,45.0,30.16,SSE,152,5.0,9.0,48,0.00,,,0.00,,2013-04-27 17:02:00,
2013-04-27 12:12:00,65.0,45.0,30.16,SSE,152,5.0,9.0,48,0.00,,,0.00,,2013-04-27 17:12:00,
2013-04-27 12:22:00,66.0,42.0,30.15,ESE,102,3.0,10.0,42,0.00,,,0.00,,2013-04-27 17:22:00,
2013-04-27 12:32:00,66.0,43.0,30.15,ESE,103,4.0,11.0,43,0.00,,,0.00,,2013-04-27 17:32:00,
2013-04-27 12:42:00,66.0,43.0,30.15,ESE,103,4.0,11.0,43,0.00,,,0.00,,2013-04-27 17:42:00,
2013-04-27 12:53:00,65.0,42.0,30.14,WSW,249,1.0,12.0,43,0.00,,,0.00,,2013-04-27 17:53:00,
2013-04-27 13:02:00,66.0,43.0,30.13,SE,134,4.0,8.0,44,0.00,,,0.00,,2013-04-27 18:02:00,
2013-04-27 13:12:00,66.0,43.0,30.13,SE,134,4.0,8.0,44,0.00,,,0.00,,2013-04-27 18:12:00,
2013-04-27 13:22:00,66.0,44.0,30.13,SE,142,1.0,12.0,45,0.00,,,0.00,,2013-04-27 18:22:00,
2013-04-27 13:32:00,66.0,42.0,30.12,South,178,1.0,8.0,42,0.00,,,0.00,,2013-04-27 18:32:00,
2013-04-27 13:42:00,66.0,42.0,30.12,South,178,1.0,8.0,42,0.00,,,0.00,,2013-04-27 18:42:00,
2013-04-27 13:52:00,65.0,43.0,30.12,SE,142,2.0,10.0,45,0.00,,,0.00,,2013-04-27 18:52:00,
2013-04-27 14:02:00,65.0,43.0,30.11,East,86,1.0,7.0,45,0.00,,,0.00,,2013-04-27 19:02:00,
2013-04-27 14:11:00,65.0,43.0,30.11,East,86,1.0,7.0,45,0.00,,,0.00,,2013-04-27 19:11:00,
2013-04-27 14:21:00,65.0,43.0,30.11,SE,130,4.0,7.0,44,0.00,,,0.00,,2013-04-27 19:21:00,
2013-04-27 14:32:00,64.0,43.0,30.10,SE,130,2.0,6.0,46,0.00,,,0.00,,2013-04-27 19:32:00,
2013-04-27 14:42:00,64.0,43.0,30.10,SE,130,2.0,6.0,46,0.00,,,0.00,,2013-04-27 19:42:00,
2013-04-27 14:53:00,64.0,42.0,30.10,SE,140,3.0,6.0,45,0.00,,,0.00,,2013-04-27 19:53:00,
2013-04-27 15:02:00,64.0,43.0,30.09,SE,140,2.0,7.0,46,0.00,,,0.00,,2013-04-27 20:02:00,
2013-04-27 15:11:00,64.0,43.0,30.09,SE,140,2.0,7.0,46,0.00,,,0.00,,2013-04-27 20:11:00,
2013-04-27 15:21:00,63.0,44.0,30.09,NNW,339,1.0,5.0,49,0.00,,,0.00,,2013-04-27 20:21:00,
2013-04-27 15:32:00,64.0,43.0,30.08,SE,142,1.0,6.0,47,0.00,,,0.00,,2013-04-27 20:32:00,
2013-04-27 15:42:00,64.0,43.0,30.08,SE,142,1.0,6.0,47,0.00,,,0.00,,2013-04-27 20:42:00,
2013-04-27 15:52:00,65.0,43.0,30.08,SSE,148,1.0,5.0,45,0.00,,,0.00,,2013-04-27 20:52:00,
2013-04-27 16:02:00,64.0,43.0,30.07,SE,124,2.0,5.0,47,0.00,,,0.00,,2013-04-27 21:02:00,
2013-04-27 16:11:00,64.0,43.0,30.07,SE,124,2.0,5.0,47,0.00,,,0.00,,2013-04-27 21:11:00,
2013-04-27 16:21:00,64.0,44.0,30.07,SE,137,1.0,5.0,48,0.00,,,0.00,,2013-04-27 21:21:00,
2013-04-27 16:32:00,64.0,43.0,30.06,ESE,113,2.0,5.0,46,0.00,,,0.00,,2013-04-27 21:32:00,
2013-04-27 16:42:00,64.0,43.0,30.06,ESE,113,2.0,5.0,46,0.00,,,0.00,,2013-04-27 21:42:00,
2013-04-27 16:53:00,64.0,44.0,30.06,ESE,115,2.0,6.0,48,0.00,,,0.00,,2013-04-27 21:53:00,
2013-04-27 17:02:00,64.0,43.0,30.05,ESE,118,1.0,6.0,47,0.00,,,0.00,,2013-04-27 22:02:00,
2013-04-27 17:12:00,64.0,43.0,30.05,ESE,118,1.0,6.0,47,0.00,,,0.00,,2013-04-27 22:12:00,
2013-04-27 17:22:00,64.0,42.0,30.05,ESE,111,3.0,6.0,45,0.00,,,0.00,,2013-04-27 22:22:00,
2013-04-27 17:32:00,64.0,43.0,30.05,SE,136,2.0,5.0,46,0.00,,,0.00,,2013-04-27 22:32:00,
2013-04-27 17:42:00,64.0,43.0,30.05,SE,136,2.0,5.0,46,0.00,,,0.00,,2013-04-27 22:42:00,
2013-04-27 17:52:00,63.0,42.0,30.04,SE,136,0.0,4.0,46,0.00,,,0.00,,2013-04-27 22:52:00,
2013-04-27 18:02:00,63.0,42.0,30.04,SE,144,1.0,5.0,46,0.00,,,0.00,,2013-04-27 23:02:00,
2013-04-27 18:11:00,63.0,42.0,30.04,SE,144,1.0,5.0,46,0.00,,,0.00,,2013-04-27 23:11:00,
2013-04-27 18:22:00,63.0,41.0,30.03,SE,135,1.0,4.0,45,0.00,,,0.00,,2013-04-27 23:22:00,
2013-04-27 18:32:00,63.0,42.0,30.03,East,98,0.0,5.0,47,0.00,,,0.00,,2013-04-27 23:32:00,
2013-04-27 18:42:00,63.0,42.0,30.03,East,98,0.0,5.0,47,0.00,,,0.00,,2013-04-27 23:42:00,
2013-04-27 18:52:00,63.0,44.0,30.02,SSE,147,0.0,3.0,49,0.00,,,0.00,,2013-04-27 23:52:00,
2013-04-27 19:01:00,62.0,41.0,30.02,SSE,147,0.0,2.0,46,0.00,,,0.00,,2013-04-28 00:01:00,
2013-04-27 19:11:00,62.0,41.0,30.02,SSE,147,0.0,2.0,46,0.00,,,0.00,,2013-04-28 00:11:00,
2013-04-27 19:21:00,62.0,41.0,30.02,SSE,147,0.0,0.0,46,0.00,,,0.00,,2013-04-28 00:21:00,
2013-04-27 19:32:00,62.0,42.0,30.01,SSE,147,0.0,0.0,48,0.00,,,0.00,,2013-04-28 00:32:00,
2013-04-27 19:42:00,62.0,42.0,30.01,SSE,147,0.0,0.0,48,0.00,,,0.00,,2013-04-28 00:42:00,
2013-04-27 19:52:00,62.0,43.0,30.01,SSE,147,0.0,0.0,49,0.00,,,0.00,,2013-04-28 00:52:00,
2013-04-27 20:01:00,61.0,43.0,30.01,SSE,147,0.0,0.0,52,0.00,,,0.00,,2013-04-28 01:01:00,
2013-04-27 20:11:00,61.0,43.0,30.01,SSE,147,0.0,0.0,52,0.00,,,0.00,,2013-04-28 01:11:00,
2013-04-27 20:21:00,60.0,45.0,30.02,WSW,241,1.0,4.0,58,0.00,,,0.00,,2013-04-28 01:21:00,
2013-04-27 20:31:00,59.0,46.0,30.01,SW,234,0.0,2.0,62,0.00,,,0.00,,2013-04-28 01:31:00,
2013-04-27 20:42:00,59.0,46.0,30.01,SW,234,0.0,2.0,62,0.00,,,0.00,,2013-04-28 01:42:00,
2013-04-27 20:52:00,59.0,47.0,30.02,SW,234,0.0,2.0,64,0.00,,,0.00,,2013-04-28 01:52:00,
2013-04-27 21:01:00,58.0,47.0,30.01,WSW,255,1.0,3.0,66,0.00,,,0.00,,2013-04-28 02:01:00,
2013-04-27 21:12:00,58.0,47.0,30.01,WSW,255,1.0,3.0,66,0.00,,,0.00,,2013-04-28 02:12:00,
2013-04-27 21:22:00,57.0,47.0,30.01,West,259,0.0,4.0,68,0.00,,,0.00,,2013-04-28 02:22:00,
2013-04-27 21:32:00,57.0,47.0,30.01,West,259,0.0,2.0,69,0.00,,,0.00,,2013-04-28 02:32:00,
2013-04-27 21:42:00,57.0,47.0,30.01,West,259,0.0,2.0,69,0.00,,,0.00,,2013-04-28 02:42:00,
2013-04-27 21:52:00,56.0,46.0,30.01,West,259,0.0,0.0,70,0.00,,,0.00,,2013-04-28 02:52:00,
2013-04-27 22:01:00,56.0,47.0,30.01,West,259,0.0,0.0,71,0.00,,,0.00,,2013-04-28 03:01:00,
2013-04-27 22:11:00,56.0,47.0,30.01,West,259,0.0,0.0,71,0.00,,,0.00,,2013-04-28 03:11:00,
2013-04-27 22:21:00,56.0,47.0,30.01,West,259,0.0,0.0,71,0.00,,,0.00,,2013-04-28 03:21:00,
2013-04-27 22:32:00,55.0,46.0,30.00,West,259,0.0,0.0,72,0.00,,,0.00,,2013-04-28 03:32:00,
2013-04-27 22:43:00,55.0,46.0,30.00,West,259,0.0,0.0,72,0.00,,,0.00,,2013-04-28 03:43:00,
2013-04-27 22:53:00,55.0,46.0,30.00,West,259,0.0,0.0,72,0.00,,,0.00,,2013-04-28 03:53:00,
2013-04-27 23:02:00,55.0,47.0,29.99,West,259,0.0,0.0,73,0.00,,,0.00,,2013-04-28 04:02:00,
2013-04-27 23:13:00,55.0,47.0,29.99,West,259,0.0,0.0,73,0.00,,,0.00,,2013-04-28 04:13:00,
2013-04-27 23:22:00,55.0,47.0,29.99,West,259,0.0,0.0,74,0.00,,,0.00,,2013-04-28 04:22:00,
2013-04-27 23:32:00,55.0,47.0,29.98,West,259,0.0,0.0,75,0.00,,,0.00,,2013-04-28 04:32:00,
2013-04-27 23:42:00,55.0,47.0,29.98,West,259,0.0,0.0,75,0.00,,,0.00,,2013-04-28 04:42:00,
2013-04-27 23:53:00,55.0,47.0,29.97,West,259,0.0,0.0,74,0.00,,,0.00,,2013-04-28 04:53:00,